Wind_Speed
30 29 29 29 28 25 25 27 29 31 31 31 31 31 31 31 32 35 37 38 41 45 48 51 53 57 62 48 37 43 50 53 61 59 57 57 56 54 54 48 44 41 41
37 38 37 36 35 32 28 29 33 34 35 35 36 37 37 37 37 38 41 42 44 48 53 55 57 60 61 40 42 44 51 58 67 64 59 59 60 61 50 44 42 46 51
42 42 41 38 36 35 32 33 36 38 38 37 38 40 40 41 42 43 46 48 48 51 55 59 62 61 59 46 48 50 54 63 66 64 65 68 67 61 48 46 51 53 55
42 41 41 40 38 38 38 38 39 40 42 40 41 44 44 45 45 47 50 52 53 54 58 62 64 64 61 51 51 57 57 63 69 64 67 65 70 57 51 51 54 58 65
44 45 45 44 44 43 43 44 44 44 45 44 45 48 49 50 50 50 52 55 57 59 61 64 65 63 54 54 61 59 55 62 68 65 70 68 68 64 65 62 61 69 75
53 54 52 52 51 51 50 48 49 49 50 51 52 53 54 55 55 55 54 56 59 63 65 66 66 62 52 59 59 57 59 66 64 65 72 70 72 69 68 68 73 81 86
59 59 60 61 59 59 56 55 55 55 56 58 58 59 60 61 60 58 57 60 63 67 69 70 66 63 61 60 61 61 62 69 64 69 75 73 72 71 75 79 86 91 93
65 66 64 66 65 64 63 61 61 61 61 62 63 64 65 66 65 63 60 63 68 70 71 70 68 62 60 56 58 60 66 65 68 73 78 84 85 83 89 89 94 98 100
77 75 75 75 72 69 67 68 67 65 64 66 67 68 71 72 70 69 65 66 69 74 74 69 70 64 54 55 55 63 69 68 68 75 86 89 86 94 95 97 100 105 105
72 79 82 80 77 73 75 73 73 72 74 74 73 74 76 77 76 74 72 72 72 75 76 69 66 61 59 58 56 71 69 71 74 81 92 91 92 97 98 103 104 109 108
69 69 73 78 80 82 79 80 78 78 79 80 83 81 82 81 81 79 78 76 72 69 69 62 62 58 64 57 62 72 71 76 84 93 93 94 95 101 105 105 108 109 109
69 69 68 71 71 70 70 70 71 71 74 73 79 83 80 74 68 68 61 56 43 48 54 64 61 57 60 59 65 70 79 82 93 92 91 102 101 108 104 115 113 109 108
66 65 63 65 68 66 63 58 55 54 49 53 48 45 47 50 49 41 37 45 50 51 62 70 65 56 57 62 60 71 83 86 87 93 102 105 104 110 111 114 111 106 108
64 59 59 59 63 62 57 47 35 39 29 43 37 35 28 29 26 36 44 44 53 61 67 67 68 58 63 78 76 83 90 95 97 99 103 103 113 108 114 120 109 109 112
59 54 56 59 61 57 47 39 33 20 4 9 19 12 9 17 24 35 47 72 61 68 70 72 61 61 81 83 82 89 99 106 101 101 114 111 113 108 113 104 105 111 108
55 50 55 54 52 46 48 43 24 15 17 21 10 10 18 24 31 31 16 54 76 54 80 71 72 80 79 85 97 110 110 108 111 105 119 110 106 106 102 102 105 114 103
57 55 59 49 48 50 47 30 25 23 22 17 12 23 22 18 28 43 56 63 67 68 85 83 88 91 89 95 102 105 108 99 109 108 115 99 94 97 103 103 107 111 104
62 60 56 51 47 55 55 46 36 31 24 17 16 30 38 40 44 40 48 55 74 77 86 84 84 90 98 102 105 112 115 115 112 108 112 90 94 99 98 103 108 106 102
67 67 63 51 51 55 61 47 45 47 30 25 30 33 39 45 53 58 60 64 68 77 79 82 95 95 99 104 107 114 116 113 111 101 94 94 94 94 99 102 109 108 100
64 64 63 48 44 54 63 67 65 65 63 65 50 62 62 57 56 58 66 66 71 78 83 94 100 97 99 104 115 116 113 105 99 98 90 89 91 96 97 102 113 101 97
68 68 59 45 46 50 61 64 67 72 74 70 74 69 66 65 63 64 68 73 75 79 84 85 88 92 99 100 98 92 89 96 99 95 94 88 90 94 98 104 100 98 93
68 66 62 54 50 51 44 36 51 58 61 59 66 56 62 68 70 72 67 69 73 73 74 73 78 85 88 87 85 89 90 95 95 87 83 84 89 93 101 105 96 94 89
68 67 64 62 58 59 50 43 41 47 54 57 59 66 69 69 71 71 72 71 69 71 77 83 88 84 85 89 92 93 89 82 81 82 82 86 91 97 99 100 93 90 86
71 69 68 66 64 68 70 61 61 53 52 61 62 62 62 64 70 73 73 76 79 83 87 91 92 92 91 84 82 81 77 78 78 78 84 89 96 95 100 96 89 88 80
65 72 73 72 71 77 79 78 73 76 72 74 69 72 73 73 77 80 80 80 84 89 93 94 94 86 80 75 73 76 76 76 79 83 88 92 93 93 91 89 88 83 77
57 62 68 69 77 80 80 83 86 87 85 86 83 84 86 90 88 85 85 91 96 101 100 86 76 76 73 74 76 77 78 78 83 86 88 90 94 94 89 89 86 82 76
Wind_Direction
262 266 270 274 274 271 277 281 284 291 299 304 307 310 314 316 319 324 327 329 329 329 332 333 335 333 335 336 327 334 340 342 344 341 339 339 335 332 332 328 329 326 325
257 263 268 273 275 276 276 278 281 287 291 299 306 310 312 315 317 320 322 323 325 327 330 331 330 334 335 331 328 332 338 339 340 339 337 337 335 336 334 330 330 326 324
261 262 264 266 269 272 274 277 279 284 290 295 302 305 307 310 313 316 318 318 323 326 327 327 327 331 331 323 324 329 334 333 339 337 337 338 335 337 332 327 326 328 328
265 266 264 266 268 271 273 277 280 284 286 291 295 297 301 303 309 310 313 317 320 322 322 323 324 329 328 320 321 327 330 333 335 336 336 331 336 331 328 326 325 328 327
256 264 267 267 267 267 269 273 277 279 283 285 289 293 297 300 303 306 311 314 316 316 318 319 322 327 317 312 316 320 326 331 333 332 334 328 332 329 332 332 328 329 328
256 258 261 264 266 269 269 272 276 279 283 288 289 291 293 295 298 302 307 308 309 311 314 317 319 322 313 311 308 314 320 327 328 330 333 332 332 334 333 328 329 330 327
255 258 259 261 263 264 266 268 271 276 280 282 286 288 290 293 296 300 303 305 306 309 312 313 315 319 314 311 302 305 313 320 328 331 333 334 333 333 328 329 331 329 329
256 257 258 259 260 262 265 268 271 273 278 281 282 285 288 290 293 297 300 301 303 306 309 309 313 316 311 307 302 306 315 323 328 332 334 336 335 332 333 330 329 330 331
259 259 258 260 260 264 266 270 273 275 277 278 281 284 286 289 291 293 297 298 302 304 306 307 309 307 304 307 302 312 317 325 328 333 335 335 333 333 333 331 331 332 332
262 260 260 263 266 267 268 270 273 277 278 280 281 281 283 285 289 293 297 298 300 301 302 304 306 302 305 304 304 310 318 323 328 331 334 334 333 333 331 330 330 332 331
266 266 266 264 264 267 268 271 273 273 275 278 280 282 285 288 290 294 295 295 299 300 299 302 303 304 310 303 299 306 318 323 325 328 330 329 332 331 329 329 329 332 332
270 273 273 272 271 270 271 272 274 277 278 281 282 283 289 292 295 293 293 294 304 311 295 302 300 300 308 303 302 304 309 312 321 323 331 329 327 328 328 327 329 330 331
272 275 273 272 273 273 272 271 272 279 283 290 288 288 285 284 282 290 302 291 301 305 305 302 299 309 307 299 303 302 312 306 319 322 324 324 326 324 325 327 328 330 329
270 271 275 275 275 274 270 271 264 272 278 274 291 296 303 296 309 313 307 308 310 290 297 295 297 298 297 301 298 305 308 311 309 318 321 321 321 323 324 326 327 330 330
273 275 271 267 269 269 264 247 253 271 317 324 298 319 327 314 306 350 321 295 290 290 286 290 293 295 295 296 298 300 305 308 313 315 318 316 317 323 324 327 332 331 332
273 264 263 262 264 257 247 238 239 256 260 258 294 319 331 326 310 263 211 247 272 262 272 274 279 289 291 294 300 300 303 305 305 311 312 317 319 322 325 329 331 332 331
268 270 267 259 259 252 231 219 231 236 255 260 275 283 295 269 280 279 241 252 249 257 260 272 281 286 294 296 296 302 304 306 305 309 313 316 321 323 325 327 330 331 330
264 272 271 264 255 245 232 226 226 236 241 258 284 270 266 253 247 237 236 252 249 258 267 273 279 285 290 293 293 296 299 299 306 308 311 317 319 321 324 327 329 331 331
266 272 271 261 252 243 231 225 225 232 241 245 257 265 257 239 242 243 247 248 257 266 270 276 282 285 288 292 295 294 296 300 306 311 310 312 316 321 324 326 328 331 332
265 268 261 260 246 245 242 235 233 242 244 249 257 255 248 255 257 255 257 260 264 267 270 279 282 282 287 289 293 295 300 304 306 309 310 313 318 321 324 325 327 329 331
261 258 252 238 250 251 242 242 248 246 239 243 249 230 239 247 258 262 265 262 266 267 272 276 276 280 289 291 297 301 305 307 308 307 309 314 318 320 322 324 328 330 330
255 254 250 243 246 248 256 254 240 230 235 252 240 235 237 251 257 262 269 267 266 271 275 281 285 291 298 300 298 300 304 306 305 307 312 315 318 318 322 325 327 329 329
253 255 250 243 241 242 241 234 232 232 242 241 235 239 244 254 260 264 268 269 270 274 277 282 289 297 299 299 298 300 300 303 303 309 314 316 316 317 321 324 325 327 329
253 253 250 253 239 240 240 246 244 240 243 245 246 248 257 261 264 262 265 270 276 283 284 288 293 297 296 295 296 301 299 301 306 309 312 314 314 318 319 322 324 328 328
260 260 256 258 242 238 236 242 249 264 258 264 266 263 268 273 270 268 275 283 288 290 289 290 295 296 294 295 296 298 297 303 307 308 310 312 315 317 320 322 325 327 328
260 263 261 261 256 246 243 245 249 257 262 268 274 275 278 276 280 283 281 283 285 286 290 294 288 291 289 294 295 294 299 302 302 304 310 313 317 317 318 320 323 324 326
Height
10952 10954 10955 10956 10956 10958 10958 10957 10956 10954 10954 10953 10951 10950 10948 10945 10943 10940 10937 10934 10930 10926 10922 10916 10912 10906 10901 10896 10893 10889 10883 10877 10873 10866 10857 10847 10839 10833 10827 10821 10815 10812 10810
10945 10947 10948 10949 10949 10950 10951 10950 10949 10948 10946 10946 10945 10943 10941 10939 10936 10932 10929 10927 10924 10919 10913 10908 10902 10897 10891 10887 10883 10878 10873 10866 10859 10851 10844 10840 10832 10822 10815 10810 10805 10800 10796
10936 10938 10940 10941 10942 10942 10942 10942 10941 10941 10940 10939 10939 10936 10934 10931 10928 10924 10922 10918 10915 10911 10905 10897 10891 10886 10881 10878 10872 10866 10860 10855 10848 10841 10835 10830 10824 10816 10808 10801 10796 10790 10785
10926 10929 10932 10933 10934 10934 10934 10933 10933 10932 10931 10932 10931 10928 10927 10924 10922 10917 10913 10909 10905 10901 10896 10890 10882 10875 10866 10863 10859 10854 10849 10844 10838 10833 10826 10820 10814 10808 10801 10794 10786 10779 10770
10919 10919 10921 10924 10925 10925 10926 10925 10924 10923 10922 10923 10922 10920 10917 10915 10913 10909 10905 10899 10894 10891 10886 10881 10875 10869 10859 10853 10849 10845 10840 10836 10831 10823 10815 10809 10802 10794 10786 10779 10770 10761 10751
10907 10906 10910 10912 10914 10915 10915 10916 10914 10912 10913 10913 10911 10909 10906 10904 10902 10900 10896 10890 10887 10882 10876 10871 10868 10864 10856 10848 10842 10836 10831 10827 10822 10812 10806 10798 10788 10780 10773 10765 10758 10748 10733
10896 10896 10897 10898 10900 10901 10902 10903 10903 10902 10902 10900 10899 10897 10894 10891 10889 10890 10888 10881 10875 10870 10864 10860 10857 10856 10849 10840 10834 10826 10824 10819 10812 10804 10795 10784 10776 10767 10760 10749 10739 10728 10713
10878 10881 10883 10883 10885 10886 10889 10890 10891 10892 10891 10890 10888 10884 10881 10878 10878 10878 10878 10871 10862 10858 10854 10847 10844 10838 10834 10828 10822 10819 10815 10809 10802 10792 10782 10771 10762 10751 10741 10731 10720 10707 10692
10862 10864 10865 10864 10869 10874 10877 10874 10876 10879 10880 10876 10875 10871 10867 10863 10864 10863 10864 10860 10853 10844 10841 10836 10831 10826 10822 10817 10811 10806 10801 10796 10789 10778 10767 10757 10748 10738 10725 10714 10700 10686 10670
10843 10845 10847 10851 10857 10864 10862 10861 10862 10863 10858 10859 10860 10857 10852 10850 10849 10849 10849 10847 10842 10834 10826 10821 10819 10811 10810 10806 10801 10795 10790 10783 10774 10766 10755 10745 10735 10723 10709 10696 10682 10669 10653
10825 10829 10834 10838 10843 10843 10846 10846 10846 10846 10844 10842 10839 10839 10836 10838 10837 10836 10834 10832 10829 10824 10816 10807 10804 10799 10797 10793 10790 10786 10780 10771 10762 10753 10744 10734 10721 10708 10696 10682 10668 10652 10637
10816 10818 10817 10816 10820 10825 10828 10830 10830 10830 10826 10826 10826 10823 10822 10823 10824 10820 10817 10816 10816 10811 10804 10796 10794 10790 10787 10783 10779 10775 10766 10757 10751 10742 10731 10721 10708 10696 10683 10670 10654 10637 10623
10802 10803 10803 10802 10802 10805 10807 10811 10813 10811 10810 10813 10810 10809 10807 10811 10809 10806 10805 10802 10799 10800 10795 10787 10784 10779 10774 10773 10766 10759 10752 10745 10738 10728 10721 10708 10693 10683 10670 10656 10641 10624 10610
10789 10790 10790 10790 10790 10792 10793 10796 10799 10796 10796 10800 10799 10796 10793 10801 10806 10802 10796 10790 10793 10789 10789 10778 10777 10770 10766 10762 10760 10751 10743 10735 10725 10719 10708 10693 10681 10668 10656 10642 10626 10611 10596
10774 10777 10776 10776 10776 10777 10779 10782 10784 10787 10788 10789 10788 10784 10785 10791 10791 10786 10781 10780 10796 10790 10780 10774 10763 10758 10756 10753 10748 10742 10734 10723 10716 10707 10696 10684 10669 10655 10641 10629 10612 10599 10583
10758 10759 10759 10758 10759 10761 10763 10765 10770 10774 10775 10778 10780 10782 10777 10771 10784 10794 10801 10805 10807 10790 10771 10759 10751 10751 10744 10741 10738 10725 10725 10713 10704 10692 10684 10670 10657 10643 10631 10618 10603 10589 10572
10739 10741 10741 10741 10744 10745 10750 10754 10758 10759 10759 10758 10762 10761 10766 10766 10773 10783 10785 10789 10786 10765 10759 10752 10745 10741 10736 10728 10721 10720 10709 10699 10688 10680 10670 10658 10645 10631 10617 10608 10594 10579 10563
10722 10724 10724 10726 10730 10731 10734 10736 10742 10745 10744 10742 10745 10750 10757 10762 10762 10765 10761 10759 10758 10757 10750 10742 10734 10730 10724 10721 10712 10705 10700 10690 10679 10669 10658 10645 10633 10623 10609 10599 10585 10569 10551
10703 10707 10708 10711 10714 10716 10717 10719 10724 10726 10725 10724 10733 10737 10743 10743 10744 10747 10746 10741 10740 10735 10730 10726 10724 10718 10717 10711 10702 10692 10684 10675 10668 10658 10644 10634 10624 10611 10599 10588 10576 10558 10540
10687 10688 10690 10698 10702 10700 10700 10704 10708 10712 10712 10707 10706 10714 10729 10726 10729 10730 10731 10726 10722 10719 10719 10716 10714 10712 10707 10698 10689 10678 10670 10664 10654 10643 10632 10622 10612 10601 10590 10578 10565 10550 10534
10670 10671 10678 10682 10685 10684 10690 10694 10687 10689 10690 10692 10689 10698 10702 10711 10711 10709 10711 10712 10709 10708 10707 10703 10700 10699 10693 10683 10675 10663 10657 10649 10639 10630 10620 10611 10601 10592 10581 10568 10555 10542 10528
10650 10654 10662 10668 10669 10673 10674 10672 10669 10671 10678 10679 10679 10682 10687 10687 10693 10694 10694 10692 10693 10693 10691 10687 10682 10679 10674 10664 10656 10648 10636 10630 10624 10616 10608 10599 10590 10581 10570 10559 10547 10534 10520
10636 10640 10642 10650 10654 10658 10661 10658 10662 10668 10671 10668 10668 10672 10675 10677 10678 10677 10675 10672 10671 10671 10669 10664 10663 10658 10651 10643 10634 10629 10622 10614 10610 10604 10594 10588 10580 10571 10558 10549 10538 10524 10511
10622 10627 10631 10632 10638 10642 10646 10649 10650 10652 10656 10656 10656 10659 10660 10660 10658 10656 10654 10652 10650 10650 10646 10643 10642 10638 10633 10625 10614 10610 10609 10602 10597 10590 10584 10578 10568 10558 10548 10540 10527 10514 10501
10609 10609 10609 10610 10617 10623 10629 10632 10632 10630 10632 10630 10635 10637 10636 10635 10635 10634 10633 10629 10624 10624 10625 10624 10623 10617 10613 10604 10596 10596 10593 10588 10583 10578 10573 10564 10554 10546 10536 10527 10516 10503 10491
10589 10589 10591 10592 10595 10603 10609 10611 10610 10610 10610 10609 10608 10610 10609 10606 10608 10606 10607 10604 10605 10605 10603 10600 10597 10596 10595 10586 10583 10579 10576 10573 10568 10563 10557 10546 10539 10532 10523 10514 10504 10493 10482